{"data":{"norad_id":57221,"epoch":"2026-07-02T21:51:05.057280Z","epoch_age_seconds":6997449,"freshness":"OLD","line1":"1 57221U 23094D   26183.91047520  .10182702  94008-5  26101-3 0  9993","line2":"2 57221  42.9873  80.6743 0007675 258.7725 101.2308 16.45464539164958","mean_motion":16.45464539,"eccentricity":0.0007675,"inclination_deg":42.9873,"raan_deg":80.6743,"arg_perigee_deg":258.7725,"mean_anomaly_deg":101.2308,"bstar":0.00026101,"rev_number":16495,"period_min":87.513280649313,"perigee_km":146.29497464024,"apogee_km":156.31767014011,"semimajor_km":6529.4433223902,"source":"CELESTRAK","updated_at":"2026-07-03T09:00:36.285583Z"}}